Location: Newark
(42.8481°N, 0.4872°E)
Time: 23:07:11
(UTC+00:00)

Vanguard 1 - Pass Details

Date: 04 November 2020
Orbit: 650 x 3833 km, 34.2° (Epoch: 29 November)

Event Time Altitude Azimuth Distance (km) Brightness Sun altitude
Rises 11:36:45 0° 243° (WSW) 6,658 14.6 31.5°
Reaches altitude 10° 11:40:40 10° 241° (WSW) 5,964 14.5 31.6°
Maximum altitude 12:00:56 64° 166° (SSE) 4,070 14.3 31.4°
Drops below altitude 10° 12:23:04 10° 92° (E) 6,436 14.2 30.8°
Sets 12:27:29 0° 90° (E) 7,184 14.4 30.6°
